This is the latest recevied weather packets stored in our database for station/object DG9MHV-10. If no packets are shown the sender has not sent any weather packets the latest 10 day(s).
| Time | Temp. | Humidity | Pressure | Rain* | Wind** | Luminosity | Snow |
|---|---|---|---|---|---|---|---|
| 1777480869 | 15° C | 67% | 1021.1 hPa | - | - | - | - |
| 1777479969 | 15.56° C | 67% | 1021 hPa | - | - | - | - |
| 1777478178 | 16.11° C | 78% | 1020.8 hPa | - | - | - | - |
| 1777477278 | 16.67° C | 86% | 1020.9 hPa | - | - | - | - |
| 1777476378 | 16.67° C | 88% | 1020.6 hPa | - | - | - | - |
| 1777475478 | 17.22° C | 92% | 1020.6 hPa | - | - | - | - |
| 1777474578 | 17.22° C | 87% | 1020.6 hPa | - | - | - | - |
| 1777473678 | 17.22° C | 83% | 1020.5 hPa | - | - | - | - |
| 1777472777 | 17.22° C | 85% | 1020.4 hPa | - | - | - | - |
| 1777471877 | 17.78° C | 82% | 1020.5 hPa | - | - | - | - |
| 1777470977 | 17.78° C | 75% | 1020.5 hPa | - | - | - | - |
| 1777470077 | 17.78° C | 79% | 1020.7 hPa | - | - | - | - |
| 1777469177 | 17.78° C | 78% | 1020.6 hPa | - | - | - | - |
| 1777468277 | 17.22° C | 85% | 1020.6 hPa | - | - | - | - |
| 1777467376 | 17.78° C | 87% | 1020.6 hPa | - | - | - | - |
| 1777466476 | 17.78° C | 86% | 1020.6 hPa | - | - | - | - |
| 1777465576 | 17.22° C | 93% | 1020.6 hPa | - | - | - | - |
| 1777464676 | 17.22° C | 99% | 1020.7 hPa | - | - | - | - |
| 1777463776 | 17.22° C | 97% | 1020.9 hPa | - | - | - | - |
| 1777462876 | 16.67° C | 97% | 1020.7 hPa | - | - | - | - |
| 1777461976 | 16.67° C | 100% | 1020.8 hPa | - | - | - | - |
| 1777461076 | 16.67° C | 100% | 1021 hPa | - | - | - | - |
| 1777460176 | 16.11° C | 100% | 1020.9 hPa | - | - | - | - |
| 1777459276 | 16.11° C | 100% | 1021 hPa | - | - | - | - |
| 1777458376 | 16.11° C | 100% | 1021 hPa | - | - | - | - |
* Rain since midnight (hover to see other rain measurements)
** Current wind speed in m/s (hover to see current wind gust speed)